GW1058 Weather Reports


Display with metric or nautical units.
time (UTC)temp
F
wind
direction
speed
MPH
gust
MPH
rain 1hr
in
rain 24hr
in
rain mn
in
humidity
%
barometer
mb
20260503040358 58 214 4.0 5.0 0.00 0.00 0.00 47 1011.0
20260503035854 58 199 2.0 3.0 0.00 0.00 0.00 46 1010.9
20260503035351 58 215 1.0 3.0 0.00 0.00 0.00 46 1011.1
20260503034848 58 239 1.0 3.0 0.00 0.00 0.00 46 1011.0
20260503034346 58 228 1.0 3.0 0.00 0.00 0.00 46 1011.0
20260503033843 57 228 2.0 3.0 0.00 0.00 0.00 47 1011.2
20260503033341 56 202 2.0 3.0 0.00 0.00 0.00 48 1011.3
20260503032838 56 193 1.0 2.0 0.00 0.00 0.00 49 1011.4
20260503032337 56 216 0.0 1.0 0.00 0.00 0.00 49 1011.5
20260503031834 56 226 0.0 1.0 0.00 0.00 0.00 48 1011.7
20260503031332 56 252 2.0 3.0 0.00 0.00 0.00 48 1011.6
20260503030828 57 245 1.0 3.0 0.00 0.00 0.00 48 1011.5
20260503030325 57 249 2.0 2.0 0.00 0.00 0.00 48 1011.6
20260503025821 57 236 3.0 3.0 0.00 0.00 0.00 46 1011.8
20260503025319 57 193 2.0 3.0 0.00 0.00 0.00 46 1011.7
20260503024815 57 247 2.0 3.0 0.00 0.00 0.00 46 1011.7
20260503024312 57 217 1.0 2.0 0.00 0.00 0.00 46 1011.9
20260503023809 57 210 1.0 2.0 0.00 0.00 0.00 46 1011.7
20260503023307 57 217 1.0 2.0 0.00 0.00 0.00 45 1011.6
20260503022803 57 214 0.0 2.0 0.00 0.00 0.00 45 1011.9
20260503022304 57 217 0.0 1.0 0.00 0.00 0.00 45 1011.8
20260503021759 57 220 0.0 1.0 0.00 0.00 0.00 45 1011.7
20260503021255 57 213 0.0 1.0 0.00 0.00 0.00 45 1011.8
20260503020754 57 220 1.0 1.0 0.00 0.00 0.00 45 1011.8
20260503020251 57 207 1.0 1.0 0.00 0.00 0.00 45 1011.8
20260503015747 57 206 0.0 2.0 0.00 0.00 0.00 45 1011.9
20260503015244 57 203 1.0 2.0 0.00 0.00 0.00 45 1011.7
20260503014739 57 198 1.0 2.0 0.00 0.00 0.00 44 1011.7
20260503014238 57 200 1.0 3.0 0.00 0.00 0.00 44 1011.8
20260503013735 58 196 1.0 2.0 0.00 0.00 0.00 44 1011.9
20260503013232 58 199 2.0 3.0 0.00 0.00 0.00 44 1011.9
20260503012730 58 195 2.0 3.0 0.00 0.00 0.00 43 1011.8
20260503012227 58 207 0.0 2.0 0.00 0.00 0.00 44 1012.0
20260503011723 58 201 2.0 2.0 0.00 0.00 0.00 43 1012.0
20260503011220 59 198 3.0 3.0 0.00 0.00 0.00 43 1012.0
20260503010716 59 189 3.0 5.0 0.00 0.00 0.00 42 1012.1
20260503010213 59 198 2.0 3.0 0.00 0.00 0.00 42 1012.0
20260503005711 59 200 2.0 3.0 0.00 0.00 0.00 42 1012.2
20260503005208 59 182 2.0 3.0 0.00 0.00 0.00 41 1012.2
20260503004704 60 208 2.0 5.0 0.00 0.00 0.00 40 1012.1
20260503004203 60 201 2.0 2.0 0.00 0.00 0.00 40 1012.1
20260503003700 60 189 3.0 3.0 0.00 0.00 0.00 40 1012.2
20260503003156 60 204 1.0 2.0 0.00 0.00 0.00 39 1012.1
20260503002653 60 226 1.0 2.0 0.00 0.00 0.00 39 1012.2
20260503002150 61 211 2.0 2.0 0.00 0.00 0.00 39 1012.2
20260503001646 60 231 4.0 7.0 0.00 0.00 0.00 38 1012.3
20260503001143 61 254 4.0 7.0 0.00 0.00 0.00 38 1012.5
20260503000641 61 219 3.0 5.0 0.00 0.00 0.00 38 1012.3
20260503000138 61 226 3.0 8.0 0.00 0.00 0.00 38 1012.6
20260502235634 61 249 5.0 7.0 0.00 0.00 0.00 38 1012.5
20260502235133 61 253 6.0 10.0 0.00 0.00 0.00 38 1012.5
20260502234628 61 263 5.0 7.0 0.00 0.00 0.00 38 1012.6
20260502234126 61 232 4.0 7.0 0.00 0.00 0.00 38 1012.6
20260502233621 61 251 4.0 5.0 0.00 0.00 0.00 37 1012.6
20260502233118 61 270 6.0 8.0 0.00 0.00 0.00 37 1012.8
20260502232614 61 297 7.0 8.0 0.00 0.00 0.00 37 1013.1
20260502232112 61 228 3.0 8.0 0.00 0.00 0.00 37 1013.0
20260502231608 61 258 5.0 11.0 0.00 0.00 0.00 37 1013.0
20260502231107 61 235 12.0 15.0 0.00 0.00 0.00 37 1012.9
20260502230604 61 283 7.0 11.0 0.00 0.00 0.00 37 1013.0
20260502225558 61 268 7.0 9.0 0.00 0.00 0.00 37 1013.2
20260502225055 61 276 5.0 11.0 0.00 0.00 0.00 37 1013.4
20260502224551 61 266 7.0 16.0 0.00 0.00 0.00 37 1013.4
20260502224048 61 285 8.0 14.0 0.00 0.00 0.00 36 1013.3
20260502223546 62 301 10.0 17.0 0.00 0.00 0.00 37 1013.4
20260502223045 62 241 8.0 13.0 0.00 0.00 0.00 36 1013.4
20260502222541 62 272 12.0 17.0 0.00 0.00 0.00 36 1013.4
20260502222037 61 274 11.0 14.0 0.00 0.00 0.00 36 1013.3
20260502221533 62 275 5.0 18.0 0.00 0.00 0.00 36 1013.3
20260502221031 61 292 7.0 10.0 0.00 0.00 0.00 36 1013.4
20260502220526 61 266 6.0 8.0 0.00 0.00 0.00 36 1013.8
20260502220024 61 216 6.0 14.0 0.00 0.00 0.00 37 1013.4
20260502215521 60 280 12.0 16.0 0.00 0.00 0.00 37 1013.5
20260502215017 61 323 12.0 15.0 0.00 0.00 0.00 36 1013.5
20260502214514 62 304 10.0 10.0 0.00 0.00 0.00 35 1013.7
20260502214012 62 268 9.0 11.0 0.00 0.00 0.00 35 1013.7
20260502213508 61 254 10.0 15.0 0.00 0.00 0.00 36 1013.8
20260502213007 61 278 12.0 16.0 0.00 0.00 0.00 35 1014.0
20260502212505 62 210 4.0 8.0 0.00 0.00 0.00 35 1014.1
20260502212002 61 281 8.0 10.0 0.00 0.00 0.00 35 1014.2
20260502211457 60 308 8.0 13.0 0.00 0.00 0.00 35 1014.2
20260502210955 61 286 11.0 14.0 0.00 0.00 0.00 35 1014.4
20260502210451 61 274 7.0 11.0 0.00 0.00 0.00 35 1014.3
20260502205949 60 301 8.0 10.0 0.00 0.00 0.00 34 1014.4
20260502205445 61 290 9.0 11.0 0.00 0.00 0.00 34 1014.4
20260502204942 61 247 8.0 11.0 0.00 0.00 0.00 34 1014.4
20260502204439 61 294 9.0 11.0 0.00 0.00 0.00 33 1014.6
20260502203937 61 216 4.0 13.0 0.00 0.00 0.00 34 1014.5
20260502203434 61 266 9.0 16.0 0.00 0.00 0.00 34 1014.7
20260502202930 60 194 5.0 11.0 0.00 0.00 0.00 34 1014.9
20260502202427 60 284 8.0 11.0 0.00 0.00 0.00 34 1014.9
20260502201925 61 255 11.0 15.0 0.00 0.00 0.00 34 1014.9
20260502201421 60 274 8.0 11.0 0.00 0.00 0.00 34 1014.9
20260502200918 60 251 3.0 13.0 0.00 0.00 0.00 34 1015.2
20260502200414 60 273 13.0 25.0 0.00 0.00 0.00 33 1015.3
20260502195912 59 283 8.0 11.0 0.00 0.00 0.00 33 1015.3
20260502195408 60 273 8.0 14.0 0.00 0.00 0.00 32 1015.4
20260502194905 60 291 15.0 23.0 0.00 0.00 0.00 32 1015.4
20260502194402 60 294 9.0 20.0 0.00 0.00 0.00 33 1015.5
20260502193857 60 283 11.0 18.0 0.00 0.00 0.00 33 1015.7
20260502193355 59 268 11.0 16.0 0.00 0.00 0.00 34 1015.6
20260502192850 59 310 10.0 26.0 0.00 0.00 0.00 35 1016.0
20260502192348 59 262 5.0 16.0 0.00 0.00 0.00 35 1015.9
20260502191844 58 278 19.0 23.0 0.00 0.00 0.00 35 1016.0
20260502191343 59 259 7.0 9.0 0.00 0.00 0.00 35 1015.9
20260502190839 59 276 8.0 14.0 0.00 0.00 0.00 35 1016.0
20260502190337 59 267 9.0 20.0 0.00 0.00 0.00 35 1016.0
20260502185832 59 288 22.0 27.0 0.00 0.00 0.00 34 1016.0
20260502185328 59 296 18.0 25.0 0.00 0.00 0.00 33 1016.1
20260502184825 59 263 7.0 9.0 0.00 0.00 0.00 33 1016.0
20260502184321 59 291 20.0 24.0 0.00 0.00 0.00 33 1016.2
20260502183818 58 301 20.0 23.0 0.00 0.00 0.00 33 1016.2
20260502183314 58 299 22.0 35.0 0.00 0.00 0.00 33 1016.4
20260502182809 58 345 14.0 23.0 0.00 0.00 0.00 33 1016.6
20260502182305 57 301 26.0 30.0 0.00 0.00 0.00 33 1016.6
20260502181801 58 287 27.0 37.0 0.00 0.00 0.00 34 1016.7
20260502181300 57 283 6.0 9.0 0.00 0.00 0.00 34 1016.8
20260502180758 57 303 9.0 15.0 0.00 0.00 0.00 34 1016.7
20260502180255 57 308 23.0 32.0 0.00 0.00 0.00 34 1016.7
20260502170214 56 286 9.0 13.0 0.00 0.00 0.00 34 1017.5
20260502164201 55 296 11.0 11.0 0.00 0.00 0.00 35 1017.7
20260502163656 55 275 24.0 29.0 0.00 0.00 0.00 35 1018.0
20260502163153 55 278 12.0 16.0 0.00 0.00 0.00 36 1018.0
20260502162650 55 323 8.0 11.0 0.00 0.00 0.00 38 1017.9
20260502162147 55 275 9.0 16.0 0.00 0.00 0.00 38 1018.3
20260502161644 55 262 11.0 14.0 0.00 0.00 0.00 38 1018.1
20260502161140 54 270 8.0 14.0 0.00 0.00 0.00 39 1018.3
20260502160639 55 261 9.0 16.0 0.00 0.00 0.00 39 1018.2
20260502160137 55 279 8.0 13.0 0.00 0.00 0.00 41 1018.2
20260502152057 52 279 7.0 9.0 0.00 0.00 0.00 44 1018.6
20260502151554 53 287 4.0 8.0 0.00 0.00 0.00 46 1018.7
20260502151052 52 293 6.0 8.0 0.00 0.00 0.00 49 1018.7
20260502150549 51 242 2.0 3.0 0.00 0.00 0.00 49 1018.6
20260502130434 40 268 7.0 8.0 0.00 0.00 0.00 68 1019.3
20260502123416 38 257 1.0 3.0 0.00 0.00 0.00 69 1019.3
20260502122914 37 235 1.0 2.0 0.00 0.00 0.00 71 1019.1
20260502122410 37 251 1.0 2.0 0.00 0.00 0.00 72 1019.3
20260502121908 37 217 1.0 1.0 0.00 0.00 0.00 73 1019.4
20260502121405 37 210 0.0 0.0 0.00 0.00 0.00 74 1019.3
20260502120903 37 202 0.0 0.0 0.00 0.00 0.00 74 1019.2
20260502120358 36 202 0.0 1.0 0.00 0.00 0.00 75 1019.3
20260502115856 35 201 1.0 1.0 0.00 0.00 0.00 77 1019.2
20260502115353 35 213 0.0 0.0 0.00 0.00 0.00 78 1019.2
20260502114849 34 213 0.0 0.0 0.00 0.00 0.00 78 1019.2
20260502114346 34 213 0.0 0.0 0.00 0.00 0.00 79 1019.2
20260502113843 34 213 0.0 0.0 0.00 0.00 0.00 79 1019.3
20260502113341 34 213 0.0 0.0 0.00 0.00 0.00 80 1019.1
20260502112839 33 227 0.0 0.0 0.00 0.00 0.00 81 1019.1
20260502112337 32 228 0.0 0.0 0.00 0.00 0.00 82 1019.2
20260502111834 32 229 0.0 0.0 0.00 0.00 0.00 83 1019.1
20260502111331 32 229 0.0 0.0 0.00 0.00 0.00 83 1019.2
20260502110828 32 229 0.0 0.0 0.00 0.00 0.00 83 1019.1
20260502110326 33 230 0.0 0.0 0.00 0.00 0.00 84 1019.0
20260502105823 33 231 0.0 1.0 0.00 0.00 0.00 85 1019.2
20260502105320 33 231 0.0 0.0 0.00 0.00 0.00 85 1019.2
20260502104818 34 231 0.0 2.0 0.00 0.00 0.00 85 1019.0
20260502104315 33 198 1.0 2.0 0.00 0.00 0.00 82 1019.2
20260502103812 32 194 0.0 0.0 0.00 0.00 0.00 80 1018.9
20260502103309 32 194 0.0 0.0 0.00 0.00 0.00 79 1019.1
20260502102807 32 194 0.0 0.0 0.00 0.00 0.00 77 1019.0
20260502102305 32 194 0.0 0.0 0.00 0.00 0.00 77 1018.9
20260502101801 32 194 0.0 0.0 0.00 0.00 0.00 75 1019.0
20260502101259 33 194 0.0 0.0 0.00 0.00 0.00 75 1019.1
20260502100756 33 193 0.0 0.0 0.00 0.00 0.00 75 1019.3
20260502100255 33 193 0.0 0.0 0.00 0.00 0.00 74 1019.3
20260502091229 33 107 0.0 1.0 0.00 0.00 0.00 76 1019.4
20260502090726 33 107 1.0 2.0 0.00 0.00 0.00 77 1019.3
20260502090223 33 106 1.0 2.0 0.00 0.00 0.00 77 1019.3
20260502071119 34 133 0.0 1.0 0.00 0.00 0.00 77 1019.6
20260502070617 34 132 1.0 2.0 0.00 0.00 0.00 77 1019.7
20260502070115 35 133 1.0 1.0 0.00 0.00 0.00 76 1019.7
20260502065613 35 133 0.0 1.0 0.00 0.00 0.00 75 1019.7
20260502065110 36 133 1.0 2.0 0.00 0.00 0.00 74 1019.8
20260502064609 36 133 0.0 1.0 0.00 0.00 0.00 73 1020.0
20260502064105 36 133 0.0 1.0 0.00 0.00 0.00 73 1019.9
20260502063603 36 133 1.0 1.0 0.00 0.00 0.00 73 1019.9
20260502063100 35 133 1.0 1.0 0.00 0.00 0.00 74 1019.9
20260502062557 35 133 0.0 1.0 0.00 0.00 0.00 74 1020.0
20260502062055 36 133 0.0 1.0 0.00 0.00 0.00 74 1019.9
20260502061553 35 133 0.0 1.0 0.00 0.00 0.00 74 1020.0
20260502061050 36 133 0.0 1.0 0.00 0.00 0.00 74 1019.9
20260502060545 36 133 0.0 1.0 0.00 0.00 0.00 74 1019.8
20260502060042 36 133 0.0 1.0 0.00 0.00 0.00 73 1019.8
20260502055540 37 133 0.0 1.0 0.00 0.00 0.00 72 1019.9
20260502055038 37 133 1.0 1.0 0.00 0.00 0.00 72 1019.7
20260502054537 37 132 1.0 1.0 0.00 0.00 0.00 71 1019.8
20260502054033 37 133 0.0 1.0 0.00 0.00 0.00 71 1019.7
20260502053530 37 132 0.0 1.0 0.00 0.00 0.00 71 1019.6
20260502053028 37 133 0.0 1.0 0.00 0.00 0.00 70 1019.8
20260502052526 37 132 1.0 2.0 0.00 0.00 0.00 70 1019.7
20260502052024 37 133 0.0 1.0 0.00 0.00 0.00 70 1019.8
20260502051522 38 132 1.0 1.0 0.00 0.00 0.00 69 1019.8
20260502051019 38 134 0.0 1.0 0.00 0.00 0.00 67 1020.0
20260502050515 39 131 1.0 2.0 0.00 0.00 0.00 67 1020.0
20260502050013 39 130 2.0 2.0 0.00 0.00 0.00 67 1019.8
20260502045509 39 127 1.0 2.0 0.00 0.00 0.00 66 1019.8
20260502045006 39 130 2.0 2.0 0.00 0.00 0.00 65 1019.6
20260502044502 40 148 2.0 2.0 0.00 0.00 0.00 64 1019.5
20260502043959 40 161 1.0 2.0 0.00 0.00 0.00 63 1019.7
20260502043457 40 163 1.0 1.0 0.00 0.00 0.00 64 1019.8
20260502042956 40 162 1.0 2.0 0.00 0.00 0.00 64 1019.7
20260502042453 40 114 2.0 2.0 0.00 0.00 0.00 64 1019.7
20260502041951 39 123 2.0 3.0 0.00 0.00 0.00 65 1019.7
20260502041449 40 126 2.0 3.0 0.00 0.00 0.00 67 1019.6
20260502040945 40 168 1.0 1.0 0.00 0.00 0.00 63 1019.7